When you browse on this site, cookies collect data to enhance your experience and personalize the content and advertising you see.
Visit our Privacy Policy to learn more. By continuing to use the site, you agree to this use of cookies and data.
  • In Lithuania
  • List of Countries
  • For 7 days
  • Water Temperature
  • Weather Map
  • Weather Widgets
  • user-avatar
    Login

    Hourly Weather El Quseir

    Today, 5 June, Friday

    Time Temperature Precipitation Wind Pressure Humidity
    00:00 +30°C° 0 mm 7 mps 755 mmHg 32%
    01:00 +31°C° 0 mm 9 mps 755 mmHg 34%
    02:00 +29°C° 0 mm 10 mps 755 mmHg 36%
    03:00 +29°C° 0 mm 10 mps 755 mmHg 38%
    04:00 +28°C° 0 mm 10 mps 755 mmHg 39%
    05:00 +28°C° 0 mm 10 mps 756 mmHg 41%
    06:00 +31°C° 0 mm 10 mps 756 mmHg 36%
    07:00 +33°C° 0 mm 10 mps 756 mmHg 31%
    08:00 +36°C° 0 mm 10 mps 756 mmHg 27%
    09:00 +37°C° 0 mm 10 mps 756 mmHg 26%
    10:00 +39°C° 0 mm 9 mps 756 mmHg 25%
    11:00 +40°C° 0 mm 9 mps 756 mmHg 24%
    12:00 +40°C° 0 mm 8 mps 755 mmHg 24%
    13:00 +40°C° 0 mm 7 mps 755 mmHg 24%
    14:00 +41°C° 0 mm 7 mps 754 mmHg 25%
    15:00 +40°C° 0 mm 6 mps 754 mmHg 26%
    16:00 +39°C° 0 mm 6 mps 754 mmHg 26%
    17:00 +39°C° 0 mm 6 mps 754 mmHg 27%
    18:00 +36°C° 0 mm 6 mps 754 mmHg 31%
    19:00 +34°C° 0 mm 7 mps 755 mmHg 34%
    20:00 +32°C° 0 mm 7 mps 755 mmHg 38%
    21:00 +32°C° 0 mm 7 mps 755 mmHg 37%
    22:00 +32°C° 0 mm 7 mps 755 mmHg 36%
    23:00 +31°C° 0 mm 8 mps 755 mmHg 35%

    Tomorrow, 6 June, Saturday

    Time Temperature Precipitation Wind Pressure Humidity
    00:00 +31°C° 0 mm 8 mps 755 mmHg 39%
    01:00 +29°C° 0 mm 9 mps 755 mmHg 44%
    02:00 +28°C° 0 mm 9 mps 755 mmHg 48%
    03:00 +27°C° 0 mm 9 mps 755 mmHg 48%
    04:00 +27°C° 0 mm 8 mps 755 mmHg 47%
    05:00 +27°C° 0 mm 8 mps 755 mmHg 46%
    06:00 +29°C° 0 mm 8 mps 755 mmHg 39%
    07:00 +33°C° 0 mm 8 mps 756 mmHg 32%
    08:00 +37°C° 0 mm 8 mps 756 mmHg 25%
    09:00 +38°C° 0 mm 8 mps 756 mmHg 24%
    10:00 +39°C° 0 mm 8 mps 756 mmHg 23%
    11:00 +40°C° 0 mm 8 mps 756 mmHg 23%
    12:00 +40°C° 0 mm 6 mps 755 mmHg 23%
    13:00 +40°C° 0 mm 5 mps 755 mmHg 23%
    14:00 +40°C° 0 mm 4 mps 754 mmHg 24%
    15:00 +39°C° 0 mm 3 mps 754 mmHg 24%
    16:00 +38°C° 0 mm 3 mps 754 mmHg 24%
    17:00 +38°C° 0 mm 2 mps 753 mmHg 24%
    18:00 +36°C° 0 mm 2 mps 754 mmHg 27%
    19:00 +34°C° 0 mm 2 mps 754 mmHg 30%
    20:00 +31°C° 0 mm 2 mps 754 mmHg 32%
    21:00 +30°C° 0 mm 3 mps 754 mmHg 33%
    22:00 +30°C° 0 mm 3 mps 754 mmHg 35%
    23:00 +29°C° 0 mm 4 mps 754 mmHg 36%

    Day after tomorrow, 7 June, Sunday

    Time Temperature Precipitation Wind Pressure Humidity
    00:00 +29°C° 0 mm 4 mps 754 mmHg 34%
    01:00 +29°C° 0 mm 5 mps 754 mmHg 33%
    02:00 +29°C° 0 mm 6 mps 753 mmHg 31%
    03:00 +29°C° 0 mm 7 mps 753 mmHg 34%
    04:00 +28°C° 0 mm 7 mps 754 mmHg 36%
    05:00 +28°C° 0 mm 7 mps 754 mmHg 38%
    06:00 +32°C° 0 mm 7 mps 754 mmHg 32%
    07:00 +35°C° 0 mm 7 mps 754 mmHg 26%
    08:00 +39°C° 0 mm 7 mps 755 mmHg 20%
    09:00 +40°C° 0 mm 6 mps 755 mmHg 19%
    10:00 +41°C° 0 mm 6 mps 754 mmHg 19%
    11:00 +42°C° 0 mm 5 mps 754 mmHg 18%
    12:00 +42°C° 0 mm 4 mps 754 mmHg 19%
    13:00 +42°C° 0 mm 4 mps 753 mmHg 20%
    14:00 +40°C° 0 mm 3 mps 753 mmHg 20%
    15:00 +40°C° 0 mm 2 mps 753 mmHg 19%
    16:00 +40°C° 0 mm 1 mps 752 mmHg 18%
    17:00 +37°C° 0 mm 0 mps 752 mmHg 17%
    18:00 +37°C° 0 mm 1 mps 752 mmHg 20%
    19:00 +35°C° 0 mm 1 mps 753 mmHg 22%
    20:00 +32°C° 0 mm 1 mps 753 mmHg 25%
    21:00 +32°C° 0 mm 2 mps 753 mmHg 25%
    22:00 +32°C° 0 mm 2 mps 753 mmHg 25%
    23:00 +31°C° 0 mm 3 mps 753 mmHg 25%

    8 June, Monday

    Time Temperature Precipitation Wind Pressure Humidity
    00:00 +32°C° 0 mm 4 mps 753 mmHg 25%
    01:00 +30°C° 0 mm 6 mps 753 mmHg 24%
    02:00 +30°C° 0 mm 7 mps 753 mmHg 24%
    03:00 +29°C° 0 mm 6 mps 753 mmHg 25%
    04:00 +29°C° 0 mm 6 mps 753 mmHg 27%
    05:00 +28°C° 0 mm 6 mps 753 mmHg 29%
    06:00 +32°C° 0 mm 6 mps 753 mmHg 24%
    07:00 +35°C° 0 mm 6 mps 753 mmHg 20%
    08:00 +39°C° 0 mm 6 mps 754 mmHg 15%
    09:00 +40°C° 0 mm 6 mps 754 mmHg 15%
    10:00 +41°C° 0 mm 6 mps 753 mmHg 14%
    11:00 +42°C° 0 mm 6 mps 753 mmHg 13%
    12:00 +43°C° 0 mm 5 mps 753 mmHg 13%
    13:00 +43°C° 0 mm 4 mps 752 mmHg 13%
    14:00 +43°C° 0 mm 3 mps 752 mmHg 13%
    15:00 +42°C° 0 mm 2 mps 752 mmHg 12%
    16:00 +41°C° 0 mm 1 mps 751 mmHg 12%
    17:00 +41°C° 0 mm 1 mps 751 mmHg 11%
    18:00 +39°C° 0 mm 1 mps 752 mmHg 13%
    19:00 +35°C° 0 mm 1 mps 752 mmHg 15%
    20:00 +32°C° 0 mm 1 mps 752 mmHg 16%
    21:00 +33°C° 0 mm 3 mps 752 mmHg 19%
    22:00 +32°C° 0 mm 4 mps 752 mmHg 21%
    23:00 +32°C° 0 mm 6 mps 752 mmHg 23%

    9 June, Tuesday

    Time Temperature Precipitation Wind Pressure Humidity
    00:00 +30°C° 0 mm 6 mps 752 mmHg 25%
    01:00 +30°C° 0 mm 7 mps 752 mmHg 27%
    02:00 +29°C° 0 mm 8 mps 752 mmHg 29%
    03:00 +29°C° 0 mm 8 mps 752 mmHg 31%
    04:00 +28°C° 0 mm 8 mps 752 mmHg 33%
    05:00 +28°C° 0 mm 8 mps 753 mmHg 34%
    06:00 +32°C° 0 mm 8 mps 753 mmHg 30%
    07:00 +34°C° 0 mm 8 mps 753 mmHg 26%
    08:00 +38°C° 0 mm 8 mps 754 mmHg 22%
    09:00 +39°C° 0 mm 8 mps 754 mmHg 21%
    10:00 +40°C° 0 mm 7 mps 753 mmHg 20%
    11:00 +43°C° 0 mm 7 mps 753 mmHg 19%
    12:00 +42°C° 0 mm 6 mps 753 mmHg 19%
    13:00 +42°C° 0 mm 5 mps 753 mmHg 19%
    14:00 +42°C° 0 mm 4 mps 752 mmHg 19%
    15:00 +42°C° 0 mm 4 mps 752 mmHg 19%
    16:00 +42°C° 0 mm 3 mps 752 mmHg 18%
    17:00 +40°C° 0 mm 2 mps 752 mmHg 18%
    18:00 +38°C° 0 mm 2 mps 752 mmHg 21%
    19:00 +35°C° 0 mm 3 mps 752 mmHg 24%
    20:00 +33°C° 0 mm 3 mps 752 mmHg 27%
    21:00 +31°C° 0 mm 3 mps 753 mmHg 30%
    22:00 +30°C° 0 mm 4 mps 753 mmHg 32%
    23:00 +30°C° 0 mm 5 mps 753 mmHg 34%

    10 June, Wednesday

    Time Temperature Precipitation Wind Pressure Humidity
    00:00 +30°C° 0 mm 6 mps 753 mmHg 32%
    01:00 +30°C° 0 mm 7 mps 752 mmHg 30%
    02:00 +31°C° 0 mm 8 mps 752 mmHg 28%
    03:00 +29°C° 0 mm 8 mps 752 mmHg 32%
    04:00 +28°C° 0 mm 8 mps 753 mmHg 36%
    05:00 +27°C° 0 mm 9 mps 753 mmHg 40%
    06:00 +31°C° 0 mm 9 mps 753 mmHg 35%
    07:00 +34°C° 0 mm 8 mps 753 mmHg 29%
    08:00 +37°C° 0 mm 8 mps 754 mmHg 23%
    09:00 +39°C° 0 mm 8 mps 753 mmHg 22%
    10:00 +40°C° 0 mm 8 mps 753 mmHg 21%
    11:00 +41°C° 0 mm 8 mps 753 mmHg 21%
    12:00 +41°C° 0 mm 7 mps 753 mmHg 20%
    13:00 +43°C° 0 mm 7 mps 752 mmHg 20%
    14:00 +42°C° 0 mm 6 mps 752 mmHg 20%
    15:00 +41°C° 0 mm 5 mps 752 mmHg 21%
    16:00 +40°C° 0 mm 5 mps 752 mmHg 21%
    17:00 +40°C° 0 mm 5 mps 752 mmHg 22%
    18:00 +37°C° 0 mm 5 mps 752 mmHg 25%
    19:00 +34°C° 0 mm 6 mps 752 mmHg 28%
    20:00 +32°C° 0 mm 6 mps 752 mmHg 31%
    21:00 +32°C° 0 mm 6 mps 752 mmHg 30%
    22:00 +32°C° 0 mm 6 mps 753 mmHg 29%
    23:00 +30°C° 0 mm 7 mps 753 mmHg 28%
    Show more